Location: Neu-Ulm
(48.3873°N, 10.0192°E)
Time: 06:16:25
(UTC+01:00)

ISS - Visible Passes

Search period start: 20 January 2018 00:00
Search period end: 30 January 2018 00:00
Orbit: 402 x 407 km, 51.6° (Epoch: 20 January)

Date Brightness Start Highest point End Pass type
(mag) Time Alt. Az. Time Alt. Az. Time Alt. Az.
25 Jan -0.9 19:45:42 10° SW 19:46:07 13° SW 19:46:07 13° SW visible
26 Jan -2.3 18:53:50 10° SSW 18:56:11 24° SSE 18:56:11 24° SSE visible
27 Jan -1.7 18:02:26 10° S 18:04:22 15° SE 18:06:11 10° ESE visible
27 Jan -2.0 19:37:07 10° WSW 19:38:51 29° SW 19:38:51 29° SW visible
28 Jan -3.4 18:44:53 10° SW 18:48:02 46° SSE 18:48:45 38° ESE visible
28 Jan -0.3 20:21:17 10° W 20:21:25 11° W 20:21:25 11° W visible
29 Jan -2.5 17:52:52 10° SSW 17:55:44 28° SE 17:58:36 10° E visible
29 Jan -2.9 19:28:46 10° WSW 19:31:15 47° W 19:31:15 47° W visible
